Location: St Paul
(33.9360°N, 83.4200°W)
Time: 09:52:20
(UTC-04:00)

Elektron 1 - Pass Details

Date: 06 October 2017
Orbit: 407 x 6314 km, 60.8° (Epoch: 21 October)

Event Time Altitude Azimuth Distance (km) Brightness Sun altitude
Rises 19:56:01 0° 325° (NW) 2,529 8.2 -10.2°
Reaches altitude 10° 19:58:08 10° 324° (NW) 1,506 7.1 -10.6°
Maximum altitude 20:01:04 82° 236° (SW) 421 3.8 -11.2°
Drops below altitude 10° 20:04:21 10° 149° (SSE) 1,693 6.5 -11.9°
Enters shadow 20:06:43 - 149° (SSE) 2,827 7.6 -12.4°
